Weather History for Plymouth, NH

Change the Weather History Date:

Saturday, February 9, 2013

  Actual Average (KLCI) Record (KLCI)
Temperature  
Mean Temperature 16 °F -  
Max Temperature 20 °F 30 °F 50 °F (1990)
Min Temperature 12 °F 8 °F -6 °F (1995)
Degree Days  
Heating Degree Days 49    
Moisture  
Dew Point 7 °F    
Average Humidity 70    
Maximum Humidity 93    
Minimum Humidity 49    
Precipitation  
Precipitation 0.11 in - - ()
Sea Level Pressure  
Sea Level Pressure 29.94 in    
Wind  
Wind Speed 12 mph (WNW)    
Max Wind Speed 22 mph    
Max Gust Speed 34 mph    
Visibility 5 miles    
Events Snow    
Averages and records for this station are not official NWS values.
T = Trace of Precipitation, MM = Missing Value Source: NWS Daily Summary

Daily Weather History Graph

Daily Weather History Graph

Search for Another Location

Airport:

Trip Planner

Search our weather history database for the weather conditions in past years. The results will help you decide how hot, cold, wet, or windy it might be!

Date:

Astronomy

Feb. 09, 2013 Rise Set
Actual Time 6:53 AM EST 5:09 PM EST
Civil Twilight 6:23 AM EST 5:39 PM EST
Nautical Twilight 5:50 AM EST 6:13 PM EST
Astronomical Twilight 5:16 AM EST 6:46 PM EST
Moon 6:03 AM EST (2/9) 4:49 PM EST (2/9)
Length of Visible Light 11h 15m
Length of Day
10h 15m
Waning Crescent, 0% of the Moon is Illuminated
Feb 9
Waning Crescent
Feb 10
New
Feb 17
First Quarter
Feb 25
Full
Mar 4
Last Quarter

Hourly Weather History & Observations

Time (EST) Temp. Windchill Dew Point Humidity Pressure Visibility Wind Dir Wind Speed Gust Speed Precip Events Conditions
12:15 AM 20.7 °F 13.0 °F 17.6 °F 88% 29.83 in 0.8 mi ENE 5.8 mph - 0.01 in Snow Snow
12:35 AM 20.3 °F 11.5 °F 18.5 °F 93% 29.82 in 0.5 mi ENE 6.9 mph - 0.02 in Snow Heavy Snow
12:55 AM 20.3 °F 15.4 °F 18.5 °F 93% 29.80 in 0.8 mi East 3.5 mph - 0.05 in Snow Snow
1:15 AM 20.1 °F - 18.5 °F 93% 29.79 in 1.2 mi Calm Calm - 0.04 in Snow Light Snow
1:35 AM 20.3 °F 12.5 °F 18.7 °F 93% 29.79 in 2.0 mi WNW 5.8 mph - 0.05 in Snow Light Snow
1:55 AM 20.1 °F 12.3 °F 17.8 °F 91% 29.78 in 2.5 mi WNW 5.8 mph - 0.05 in Snow Light Snow
2:15 AM 19.4 °F 7.9 °F 16.7 °F 89% 29.76 in 2.5 mi West 10.4 mph - N/A Snow Light Snow
2:35 AM 19.0 °F 9.0 °F 16.5 °F 90% 29.77 in 1.2 mi West 8.1 mph - N/A Snow Light Snow
2:55 AM 18.3 °F 5.9 °F 15.4 °F 89% 29.78 in 1.2 mi West 11.5 mph - N/A Snow Light Snow
3:15 AM 17.6 °F 7.3 °F 14.9 °F 89% 29.78 in 1.0 mi West 8.1 mph - N/A Snow Snow
3:35 AM 17.4 °F 4.7 °F 14.9 °F 90% 29.78 in 0.8 mi West 11.5 mph - N/A Snow Snow
3:55 AM 17.1 °F 5.0 °F 14.9 °F 91% 29.77 in 0.5 mi West 10.4 mph - 0.01 in Snow Snow
4:15 AM 17.2 °F 6.0 °F 14.7 °F 90% 29.77 in 1.0 mi West 9.2 mph - N/A Snow Snow
4:35 AM 17.1 °F 5.8 °F 14.4 °F 89% 29.78 in 1.2 mi West 9.2 mph - N/A Snow Light Snow
4:55 AM 16.7 °F 7.2 °F 14.5 °F 91% 29.78 in 1.0 mi West 6.9 mph - N/A Snow Snow
5:15 AM 17.1 °F 5.8 °F 14.5 °F 90% 29.78 in 1.0 mi NW 9.2 mph - N/A Snow Snow
5:35 AM 16.7 °F 6.2 °F 13.8 °F 88% 29.78 in 1.2 mi West 8.1 mph - N/A Snow Light Snow
5:55 AM 16.2 °F 2.5 °F 11.8 °F 83% 29.78 in 2.5 mi WNW 12.7 mph 19.6 mph N/A Snow Light Snow
6:15 AM 15.6 °F 1.8 °F 10.4 °F 80% 29.78 in 4.0 mi WNW 12.7 mph 19.6 mph N/A Snow Light Snow
6:35 AM 14.9 °F 0.3 °F 9.1 °F 78% 29.79 in 4.0 mi WNW 13.8 mph 19.6 mph N/A Snow Light Snow
6:55 AM 14.4 °F 0.2 °F 8.4 °F 77% 29.80 in 5.0 mi WNW 12.7 mph 21.9 mph N/A Snow Light Snow
7:15 AM 14.0 °F -0.2 °F 7.7 °F 76% 29.81 in 5.0 mi WNW 12.7 mph 21.9 mph N/A Snow Light Snow
7:35 AM 13.6 °F -1.3 °F 7.3 °F 76% 29.83 in 7.0 mi WNW 13.8 mph 18.4 mph N/A   Unknown
7:55 AM 13.1 °F -3.1 °F 6.4 °F 75% 29.83 in 4.0 mi West 16.1 mph 24.2 mph N/A   Haze
8:15 AM 13.1 °F -5.1 °F 6.3 °F 74% 29.84 in 4.0 mi West 20.7 mph 32.2 mph N/A   Haze
8:35 AM 12.2 °F -5.3 °F 5.9 °F 76% 29.85 in 1.5 mi West 18.4 mph 29.9 mph N/A   Haze
8:55 AM 12.2 °F -4.8 °F 5.5 °F 75% 29.85 in 3.0 mi WNW 17.3 mph 26.5 mph N/A   Haze
9:15 AM 12.7 °F -5.5 °F 5.2 °F 72% 29.86 in 2.5 mi West 20.7 mph 33.4 mph N/A   Haze
9:35 AM 13.1 °F -5.1 °F 5.5 °F 72% 29.87 in 2.0 mi WNW 20.7 mph 28.8 mph N/A   Haze
9:55 AM 13.8 °F -3.2 °F 5.9 °F 71% 29.86 in 1.5 mi WNW 18.4 mph 28.8 mph N/A   Haze
10:15 AM 13.6 °F -4.4 °F 5.7 °F 71% 29.88 in 1.8 mi WNW 20.7 mph 31.1 mph N/A   Haze
10:35 AM 13.3 °F -4.4 °F 5.7 °F 72% 29.89 in 2.5 mi WNW 19.6 mph 27.6 mph N/A   Haze
10:55 AM 13.1 °F -3.7 °F 5.5 °F 72% 29.90 in 2.0 mi WNW 17.3 mph 26.5 mph N/A   Haze
11:15 AM 13.5 °F -3.7 °F 5.7 °F 71% 29.91 in 3.0 mi WNW 18.4 mph 25.3 mph N/A   Haze
11:35 AM 13.1 °F -4.2 °F 5.7 °F 72% 29.91 in 1.8 mi West 18.4 mph 29.9 mph N/A   Haze
11:55 AM 13.3 °F -4.4 °F 6.1 °F 73% 29.91 in 2.0 mi WNW 19.6 mph 29.9 mph N/A   Haze
12:15 PM 14.0 °F -3.9 °F 6.8 °F 73% 29.91 in 2.0 mi WNW 20.7 mph 28.8 mph N/A   Haze
12:35 PM 14.7 °F -2.9 °F 6.4 °F 70% 29.92 in 2.5 mi West 20.7 mph 26.5 mph N/A   Haze
12:55 PM 15.3 °F -2.6 °F 5.9 °F 67% 29.93 in 1.8 mi West 21.9 mph 34.5 mph N/A   Haze
1:15 PM 15.6 °F -1.8 °F 5.4 °F 64% 29.93 in 1.5 mi WNW 20.7 mph 31.1 mph N/A Snow Light Snow
1:35 PM 16.2 °F 0.3 °F 4.8 °F 61% 29.95 in 5.0 mi WNW 17.3 mph 26.5 mph N/A   Haze
1:55 PM 16.7 °F 1.5 °F 4.8 °F 60% 29.95 in 10.0 mi West 16.1 mph 26.5 mph N/A   Unknown
2:15 PM 17.4 °F 2.9 °F 4.6 °F 57% 29.96 in 10.0 mi West 15.0 mph 23.0 mph N/A   Unknown
2:35 PM 17.6 °F 3.2 °F 4.8 °F 57% 29.98 in 10.0 mi West 15.0 mph 23.0 mph N/A   Unknown
2:55 PM 17.6 °F 1.7 °F 4.8 °F 57% 29.99 in 7.0 mi West 18.4 mph 27.6 mph N/A   Unknown
3:15 PM 17.6 °F 5.0 °F 4.8 °F 57% 30.01 in 10.0 mi WNW 11.5 mph 20.7 mph N/A   Unknown
3:35 PM 17.6 °F 4.3 °F 4.6 °F 57% 30.02 in 10.0 mi WNW 12.7 mph 21.9 mph N/A   Unknown
3:55 PM 18.1 °F 3.9 °F 4.6 °F 56% 30.03 in 10.0 mi WNW 15.0 mph 19.6 mph N/A   Unknown
4:15 PM 17.6 °F 3.2 °F 5.0 °F 58% 30.05 in 10.0 mi WNW 15.0 mph 20.7 mph N/A   Unknown
4:35 PM 17.6 °F 3.2 °F 5.0 °F 58% 30.06 in 10.0 mi WNW 15.0 mph 27.6 mph N/A   Unknown
4:55 PM 17.4 °F 2.9 °F 4.1 °F 56% 30.07 in 10.0 mi West 15.0 mph 24.2 mph N/A   Unknown
5:15 PM 17.1 °F 2.5 °F 4.1 °F 57% 30.07 in 10.0 mi West 15.0 mph 20.7 mph N/A   Unknown
5:35 PM 16.7 °F 3.8 °F 3.7 °F 57% 30.09 in 10.0 mi West 11.5 mph 23.0 mph N/A   Unknown
6:15 PM 16.3 °F 4.9 °F 3.2 °F 56% 30.11 in 10.0 mi West 9.2 mph 16.1 mph N/A   Unknown
6:35 PM 15.8 °F 2.7 °F 2.8 °F 57% 30.13 in 10.0 mi West 11.5 mph 18.4 mph N/A   Unknown
6:55 PM 15.4 °F 3.0 °F 2.3 °F 56% 30.14 in 10.0 mi WNW 10.4 mph - N/A   Unknown
7:15 PM 14.9 °F 1.6 °F 1.9 °F 57% 30.14 in 10.0 mi West 11.5 mph 19.6 mph N/A   Unknown
7:35 PM 14.5 °F -0.2 °F 1.4 °F 56% 30.15 in 10.0 mi West 13.8 mph 20.7 mph N/A   Unknown
7:55 PM 14.0 °F -2.0 °F 0.5 °F 55% 30.15 in 10.0 mi West 16.1 mph 23.0 mph N/A   Unknown
8:15 PM 13.8 °F -3.2 °F 0.1 °F 55% 30.16 in 10.0 mi West 18.4 mph 28.8 mph N/A   Unknown
8:35 PM 13.5 °F -2.7 °F -0.4 °F 54% 30.16 in 10.0 mi West 16.1 mph 26.5 mph N/A   Unknown
8:55 PM 13.6 °F -2.4 °F -0.8 °F 53% 30.17 in 10.0 mi West 16.1 mph 27.6 mph N/A   Unknown
9:15 PM 13.8 °F -2.7 °F -1.1 °F 52% 30.17 in 10.0 mi West 17.3 mph 26.5 mph N/A   Unknown
9:35 PM 14.0 °F -2.5 °F -1.8 °F 49% 30.18 in 10.0 mi West 17.3 mph 27.6 mph N/A   Unknown
10:35 PM 13.6 °F -1.9 °F -1.7 °F 51% 30.18 in 10.0 mi West 15.0 mph 29.9 mph N/A   Unknown
10:55 PM 13.6 °F -3.0 °F -1.5 °F 51% 30.19 in 10.0 mi West 17.3 mph 26.5 mph N/A   Unknown
11:15 PM 13.5 °F -4.2 °F -1.7 °F 51% 30.20 in 10.0 mi West 19.6 mph 26.5 mph N/A   Unknown
11:35 PM 13.1 °F -3.7 °F -1.8 °F 51% 30.21 in 10.0 mi West 17.3 mph 27.6 mph N/A   Unknown
11:55 PM 13.3 °F -3.4 °F -2.0 °F 51% 30.22 in 10.0 mi West 17.3 mph 29.9 mph N/A   Unknown